GEFSGL_con_maxscp_276.txt.gz
SCP
2 3 3 4 3 3 2 1 1 1 1 1 2 2 3 3 3 3 3 3 3 3 3 4 3 3 2 2 2 2 1 1 1 1 1 1 1 1 1 1 1 1 1
3 3 3 3 3 2 2 2 1 1 1 2 2 2 3 3 4 4 4 4 3 3 4 5 5 4 3 3 3 2 1 1 1 1 1 1 1 1 1 1 1 1 1
3 3 3 3 3 2 2 1 1 2 2 2 2 2 3 3 4 4 4 4 4 4 4 5 6 5 3 3 2 2 2 2 1 1 1 1 1 2 2 1 1 1 1
3 3 3 3 3 2 2 1 1 1 2 2 2 2 2 3 3 4 5 5 4 4 4 4 4 4 3 3 2 2 2 2 2 2 2 2 2 2 2 2 1 1 1
2 2 2 2 2 2 2 2 2 2 2 2 2 2 2 2 2 3 4 5 4 3 3 3 3 3 3 3 2 2 2 2 2 2 2 2 2 2 2 2 1 1 1
2 2 2 2 2 2 2 2 2 2 2 2 2 2 2 2 2 2 3 3 3 3 3 3 3 3 3 2 2 2 2 2 2 2 2 2 2 2 2 2 1 1 1
3 3 2 2 1 2 2 2 3 3 3 3 2 2 2 2 2 1 1 2 3 4 4 4 4 3 3 2 2 2 1 1 2 2 2 2 2 2 2 2 1 1 1
4 3 2 2 2 2 2 3 3 4 4 4 3 2 2 2 1 1 1 2 3 4 5 5 5 4 3 3 2 2 2 2 1 1 2 2 2 2 2 2 1 1 1
4 3 2 2 2 2 2 3 4 5 5 5 3 3 3 2 1 1 1 2 4 5 5 5 5 4 3 2 3 3 2 2 1 1 1 1 1 1 1 1 2 1 1
4 3 2 2 2 2 2 2 4 5 5 4 3 3 3 3 2 1 1 2 4 5 5 5 4 3 2 2 2 3 2 2 1 1 1 1 0 0 0 1 1 1 1
4 4 3 3 2 2 2 2 3 4 4 4 3 3 3 3 2 1 1 2 4 5 5 4 3 2 1 1 1 2 2 1 1 1 1 1 1 1 1 1 1 2 2
4 5 4 4 3 2 2 2 3 4 4 3 3 3 3 3 2 1 0 1 2 4 4 4 3 1 0 0 0 1 1 1 1 1 1 1 1 1 1 1 1 1 2
5 5 5 4 3 3 2 2 2 3 3 3 2 2 2 2 2 1 1 0 1 2 3 2 2 1 1 0 0 0 0 1 1 2 2 2 1 1 1 1 1 1 1
5 4 4 4 3 3 2 2 2 2 2 2 2 2 2 2 2 2 1 1 1 1 1 1 1 1 1 1 1 0 1 1 2 2 2 2 2 1 1 1 1 1 1
3 3 3 2 2 2 1 1 1 1 1 1 1 1 1 2 2 2 2 1 1 1 1 1 1 1 1 1 1 1 1 1 2 3 3 3 2 2 1 1 0 0 0
2 2 1 1 1 0 0 0 0 0 0 0 0 1 1 1 1 1 1 1 1 1 1 1 2 2 2 2 2 2 2 2 3 3 4 3 3 2 1 1 0 0 0
1 1 1 0 0 0 0 0 0 0 0 0 0 0 0 0 0 0 0 0 0 0 1 2 2 2 2 3 3 3 3 3 3 4 4 4 3 2 1 0 0 0 0
0 0 0 0 0 0 0 0 0 0 0 0 0 0 0 0 0 0 0 0 0 0 1 1 2 3 3 3 3 4 4 4 3 4 4 4 3 2 1 1 0 0 0
0 0 0 0 0 0 0 0 0 0 0 0 1 1 0 0 0 0 0 0 0 0 0 1 2 2 3 3 3 4 4 4 4 4 3 3 2 2 1 1 0 0 0
0 0 0 0 0 0 0 0 0 0 0 0 0 1 1 0 0 0 0 0 0 0 1 1 1 1 2 2 3 3 4 5 5 4 3 2 2 1 1 1 0 0 0
0 0 0 0 0 0 0 0 0 0 0 0 0 0 0 1 1 1 1 1 0 1 1 1 1 1 1 2 2 2 3 4 5 5 3 2 1 1 1 1 1 0 0
0 0 0 0 0 0 0 0 0 0 0 0 0 0 0 0 1 1 2 2 2 1 1 1 1 1 1 1 2 2 2 3 4 4 3 2 1 1 1 1 1 1 0
1 1 0 0 0 0 0 0 0 0 0 0 0 0 0 0 0 1 1 2 3 2 2 1 1 1 1 1 1 2 1 1 2 3 3 2 2 1 2 1 1 1 1
1 1 0 0 0 0 0 0 0 0 0 0 0 0 0 0 0 0 1 2 3 3 3 2 2 1 1 1 1 1 1 1 1 3 3 2 2 2 2 1 1 1 1
0 0 0 0 0 0 0 0 0 0 0 0 0 0 0 0 0 0 1 1 3 3 3 3 2 1 1 1 1 1 0 0 1 2 3 3 2 2 2 2 1 1 1
0 0 0 0 0 0 0 0 0 0 0 0 0 0 0 0 0 0 0 1 2 3 3 2 2 2 1 1 0 0 0 0 1 2 3 3 3 2 2 1 1 1 1

GEFSGL_con_maxscp_282.txt.gz
SCP
4 4 5 4 3 3 3 3 3 3 3 3 3 3 3 3 3 3 3 3 3 3 4 4 4 4 5 5 6 6 5 5 4 4 4 4 6 6 4 3 2 2 2
6 6 5 4 3 3 3 3 3 3 3 3 4 4 4 4 4 4 4 4 3 4 4 4 4 4 5 6 6 6 5 5 4 4 4 5 6 5 4 3 2 2 2
8 8 6 5 4 4 4 5 4 4 4 4 4 4 4 4 4 4 4 4 4 4 4 4 4 4 5 6 6 5 4 4 4 4 4 5 5 4 3 3 3 3 3
9 9 9 8 8 8 8 8 7 6 5 4 4 3 3 3 4 4 4 4 4 4 3 3 3 4 4 5 5 4 4 4 4 4 4 4 4 4 3 3 4 4 3
11 12 13 14 14 12 10 9 8 6 5 4 4 3 3 3 3 4 4 4 4 4 4 3 3 3 3 3 3 3 3 3 3 3 4 4 4 4 4 4 4 4 3
15 15 16 16 14 11 9 7 6 5 4 4 4 4 3 3 2 2 3 3 4 4 4 4 3 3 3 2 2 2 2 3 3 3 4 4 5 5 5 5 5 4 3
13 13 13 11 9 7 6 6 6 5 5 4 4 4 4 4 2 2 2 3 4 5 5 4 4 3 3 3 2 2 2 2 3 3 4 5 5 6 6 7 6 5 4
8 8 8 7 6 5 5 6 7 6 5 5 6 6 6 5 3 1 1 3 5 5 5 5 5 4 3 3 3 3 3 3 3 3 4 5 6 7 8 8 7 5 4
6 7 8 8 7 6 6 7 7 6 5 5 6 7 6 5 3 1 1 3 5 6 6 5 5 4 3 3 4 5 6 5 4 3 4 4 5 6 7 8 6 5 3
8 10 11 12 11 9 8 8 8 7 5 5 5 6 6 5 3 1 1 4 6 7 6 5 4 3 3 2 3 5 7 8 7 6 4 4 4 5 5 5 5 4 3
10 12 14 15 14 12 10 10 9 8 6 5 4 5 6 5 3 1 1 4 6 8 7 5 3 2 1 1 3 5 6 8 10 9 6 5 5 4 4 4 5 4 4
9 10 12 13 12 11 10 10 10 9 7 6 5 5 5 4 3 2 1 2 5 7 6 4 3 2 1 0 1 3 4 7 10 10 8 6 6 5 5 5 5 5 4
7 7 8 8 9 9 9 9 8 7 7 7 6 5 5 4 3 2 1 1 2 4 4 3 2 1 1 0 1 1 2 6 9 10 9 9 7 6 5 5 5 5 5
5 5 6 7 8 8 9 9 8 6 6 6 6 6 5 3 2 1 1 1 1 1 2 3 2 1 1 1 1 1 2 4 6 8 9 9 8 6 5 4 4 5 5
3 4 5 6 6 8 9 9 6 4 3 4 5 5 5 3 2 1 1 1 1 1 2 2 2 1 1 1 2 2 3 3 4 5 6 6 5 5 4 4 4 4 4
2 3 3 4 5 6 7 7 4 2 1 1 2 2 3 2 1 0 0 0 0 1 1 2 2 1 1 2 2 3 3 3 3 4 4 4 3 4 4 4 4 4 3
2 2 2 3 4 4 5 4 3 2 1 0 0 0 0 0 0 0 0 0 0 0 1 2 2 1 1 1 2 2 3 3 3 3 3 3 3 4 4 5 5 4 4
2 2 2 2 3 3 3 3 3 3 2 1 1 0 0 0 0 0 0 0 0 1 1 1 2 2 2 2 2 2 2 2 2 2 2 2 3 3 4 5 5 5 4
1 1 2 2 2 2 2 2 2 2 2 2 1 1 0 0 0 0 0 1 1 1 1 1 2 2 2 3 3 2 2 2 1 1 1 1 2 2 3 4 5 5 4
1 1 1 1 1 1 1 2 2 2 2 1 1 1 1 0 1 1 1 1 1 1 1 1 2 2 2 3 2 2 2 2 1 1 1 1 2 2 2 3 4 5 5
1 1 1 1 1 1 1 1 1 1 1 2 2 1 1 1 1 1 1 1 1 1 1 1 2 2 2 2 2 2 2 1 1 1 2 2 2 2 2 2 3 4 4
1 0 0 1 1 1 1 0 1 1 1 2 2 1 1 1 1 1 1 1 1 1 1 1 1 1 1 1 2 2 2 1 1 1 2 2 2 3 3 2 2 2 2
0 0 0 1 1 1 1 0 0 0 1 1 1 1 1 1 1 1 1 1 1 1 1 1 1 1 1 1 1 1 1 1 2 2 2 2 2 3 3 2 2 2 1
1 0 0 1 1 1 1 1 0 0 1 1 1 1 1 1 1 1 1 1 1 1 1 0 0 0 0 1 1 1 1 1 1 2 2 2 2 2 3 3 2 2 1
1 1 1 1 1 1 1 1 0 0 0 0 0 0 0 0 0 1 1 1 1 0 0 0 0 0 0 0 0 0 0 0 1 1 2 2 2 2 2 3 3 2 2
1 1 1 1 1 1 1 1 0 0 0 0 0 0 0 0 0 0 1 1 1 1 1 0 0 0 0 0 0 0 0 0 0 1 1 2 2 2 2 3 3 3 2

GEFSGL_con_maxscp_288.txt.gz
SCP
11 10 8 6 6 6 5 6 7 8 9 9 9 8 6 5 6 7 7 6 6 6 6 6 6 7 7 7 6 5 5 5 4 4 3 3 4 4 4 5 6 4 3
11 11 9 7 6 6 5 5 7 8 8 9 10 8 6 6 7 7 7 6 6 6 6 6 6 6 6 6 5 5 5 4 4 4 3 3 4 4 4 5 5 4 3
11 12 11 9 7 6 6 6 7 8 9 10 10 9 7 7 7 8 7 8 8 8 7 6 6 6 6 6 5 4 4 3 3 3 3 3 4 4 7 8 6 4 3
10 12 13 11 9 8 8 8 9 9 9 10 9 8 7 7 7 7 7 8 9 8 8 7 7 7 7 6 5 4 3 3 3 3 3 3 3 4 9 12 7 3 3
10 11 13 13 12 11 10 10 10 10 10 9 8 7 7 6 5 5 6 7 8 8 8 8 7 7 6 5 4 4 3 3 3 3 3 3 3 3 6 8 6 4 4
10 11 13 13 13 12 11 10 11 10 9 7 7 7 8 7 5 4 5 6 7 8 9 9 8 6 5 4 3 3 3 3 3 3 3 2 2 3 3 4 4 4 4
11 12 13 13 12 12 11 10 11 10 8 7 7 7 8 8 6 5 5 6 7 8 9 9 8 6 5 5 4 3 2 2 3 3 3 2 2 3 4 4 4 4 4
11 12 12 12 12 13 13 12 11 9 8 7 6 7 7 7 6 5 5 5 7 7 7 8 8 7 6 6 5 4 4 3 3 3 3 3 3 3 4 4 5 5 6
11 11 11 12 15 16 15 14 12 10 8 7 7 7 7 6 5 4 4 5 5 6 6 6 7 8 7 6 6 6 5 4 3 2 2 3 3 3 3 4 5 6 6
11 10 11 13 16 16 16 15 12 10 8 7 7 7 7 6 5 3 3 4 5 5 5 6 6 7 6 5 6 6 5 4 3 3 2 2 3 3 3 3 4 5 6
11 10 11 13 13 13 14 14 12 10 9 8 7 7 7 7 5 3 2 3 4 5 5 5 6 5 3 3 5 5 5 4 3 3 3 3 4 4 4 4 4 4 4
10 11 12 11 10 10 11 11 10 9 9 8 8 8 9 8 6 3 1 2 3 4 4 4 4 3 1 1 3 3 3 2 3 3 4 4 4 5 5 5 4 4 4
11 10 10 9 9 9 8 8 8 7 7 8 8 9 10 10 7 3 1 1 2 2 3 3 2 1 0 0 1 1 1 1 2 3 3 3 3 4 5 5 4 4 4
12 10 8 8 9 9 7 6 5 5 6 7 8 9 10 10 8 4 2 1 1 1 2 2 1 1 0 1 1 1 1 1 2 2 2 2 2 4 5 5 5 4 4
11 10 7 8 9 8 7 5 3 3 3 4 5 6 7 7 6 4 2 2 1 1 1 2 2 1 1 1 2 2 1 1 1 1 1 1 2 3 4 5 5 4 4
10 8 6 6 7 6 5 3 2 1 1 1 2 2 3 3 2 2 1 1 1 1 1 2 2 2 2 2 2 2 1 1 1 1 1 1 1 2 3 4 4 4 4
7 6 6 7 6 4 3 2 2 1 1 0 0 0 0 0 0 0 0 0 0 0 1 1 1 1 1 1 1 1 1 1 1 1 1 1 1 2 2 3 4 4 3
4 4 6 7 5 3 2 2 2 1 1 1 1 0 0 0 0 0 0 0 0 0 1 1 1 1 1 1 1 1 1 1 1 2 2 2 1 2 2 3 3 3 3
2 3 4 4 3 2 1 1 1 1 1 1 1 1 0 0 0 0 0 1 1 1 1 1 1 2 2 2 2 2 1 1 1 2 2 2 2 2 2 2 2 3 3
2 2 2 1 1 1 1 1 1 1 1 1 1 1 0 0 0 0 1 1 1 1 1 1 2 2 2 3 3 2 2 1 1 2 2 1 1 1 2 2 2 2 2
1 1 1 0 1 1 1 1 1 1 1 1 1 1 0 0 1 1 1 1 1 1 1 2 2 2 2 3 3 2 2 1 1 1 1 1 1 1 1 1 1 1 2
1 1 1 1 1 1 1 1 1 1 1 1 1 1 1 1 1 1 1 1 1 1 1 2 2 2 2 2 2 2 2 1 1 1 1 1 1 1 1 1 1 1 1
1 1 1 1 1 1 1 0 1 1 1 1 1 1 1 1 1 1 1 1 1 1 1 2 2 2 2 2 2 2 2 1 1 1 1 1 1 1 1 1 1 1 1
1 1 1 1 1 1 1 1 1 1 1 1 1 1 1 1 1 1 1 1 1 1 1 1 2 2 2 2 2 2 1 1 1 1 1 1 1 1 1 1 1 1 0
1 1 1 1 1 1 1 1 1 1 1 1 1 1 1 1 1 1 1 1 1 1 1 1 1 2 2 2 1 1 1 1 1 1 1 1 1 1 1 1 1 1 0
1 1 0 1 1 1 1 1 1 1 1 1 1 1 1 1 1 1 1 1 1 1 1 1 1 1 1 1 1 0 0 0 0 0 0 1 1 1 1 1 1 1 1

GEFSGL_con_maxscp_294.txt.gz
SCP
4 4 3 3 2 3 5 7 7 5 4 3 2 3 3 3 4 5 5 5 4 3 2 2 2 2 1 1 2 2 1 1 1 1 1 1 1 1 1 0 0 0 1
5 4 3 2 2 3 4 6 6 4 3 3 2 3 3 3 4 4 4 4 3 2 2 2 2 2 2 1 2 2 1 1 1 1 1 1 1 1 1 1 0 0 0
5 4 3 3 2 3 3 4 4 4 3 3 3 3 3 3 3 3 3 3 2 2 2 2 2 2 2 2 2 1 1 1 1 1 1 1 1 1 1 1 0 0 0
5 4 3 3 3 3 4 4 4 4 4 4 4 3 3 3 3 3 3 3 3 3 3 3 3 3 2 2 2 2 1 1 1 1 1 1 1 1 1 1 1 0 0
4 4 4 4 4 5 5 5 6 6 5 5 4 3 3 3 3 3 3 3 3 3 3 3 3 3 3 2 2 2 2 2 1 1 1 1 1 1 1 1 1 1 0
4 5 5 5 6 7 8 7 7 6 5 4 3 3 3 2 2 2 2 2 3 3 3 3 3 3 3 2 2 2 2 2 2 2 1 1 1 1 1 1 1 1 1
5 6 7 8 9 9 9 7 5 4 3 3 2 2 2 2 2 1 1 2 3 3 3 3 3 3 3 3 2 2 2 2 2 2 2 1 1 1 1 1 1 1 1
7 9 10 10 10 9 7 6 4 3 3 3 2 2 3 3 2 2 1 2 3 3 3 3 3 3 3 3 3 3 3 2 2 2 2 2 1 1 1 1 1 1 1
10 11 11 10 8 6 5 4 4 4 3 3 3 3 3 3 3 2 1 2 3 3 3 3 3 3 2 3 3 4 4 3 2 2 2 1 1 0 1 1 1 1 1
9 8 7 6 5 4 4 4 5 4 4 4 4 4 6 7 4 1 1 2 3 4 4 3 3 2 2 2 2 4 4 4 3 2 1 1 1 0 0 1 1 1 1
6 5 4 4 3 3 3 4 4 4 4 4 4 4 8 11 6 1 1 2 3 3 4 4 4 3 1 1 1 3 4 4 3 2 1 1 1 1 1 1 1 1 1
5 5 4 3 3 3 3 3 3 3 3 3 3 3 5 6 4 1 1 1 1 2 3 4 3 3 1 1 1 1 2 2 2 1 1 1 1 1 1 1 1 1 1
8 7 6 5 3 2 2 2 3 3 3 3 2 2 1 1 1 0 0 0 0 1 2 2 2 2 1 1 0 1 1 2 2 2 1 1 0 0 1 1 1 1 1
12 12 10 7 4 2 2 2 2 2 2 2 1 1 1 0 0 0 0 0 0 0 1 1 1 1 1 1 1 0 1 3 3 2 1 0 0 0 0 0 1 1 1
16 16 15 10 5 2 1 1 1 1 1 1 1 1 1 0 0 0 0 0 0 0 0 1 1 1 1 1 1 1 1 3 4 3 1 0 0 0 0 0 0 1 1
17 17 16 11 5 2 1 1 0 0 0 0 0 0 0 0 0 0 0 0 0 0 0 0 1 1 1 1 1 1 2 3 4 2 1 0 0 0 0 0 0 1 1
15 14 13 9 5 2 1 1 0 0 0 0 0 0 0 0 0 0 0 0 0 0 0 0 1 1 1 1 1 1 2 3 3 2 1 0 0 0 0 0 1 1 1
10 9 8 6 3 1 1 0 0 0 0 0 0 0 0 0 0 0 0 0 0 0 0 0 1 1 1 1 1 1 1 1 2 1 1 0 0 0 0 0 0 0 0
4 4 4 3 1 0 0 0 0 0 0 0 0 0 0 0 0 0 0 0 0 0 0 0 0 1 1 1 1 1 1 0 1 1 0 0 0 0 0 0 0 0 0
1 1 1 1 0 0 0 0 0 0 0 0 0 0 0 0 0 0 0 0 0 0 0 0 0 0 0 1 1 1 1 0 0 0 0 0 0 0 0 0 0 0 0
0 0 0 0 0 0 0 0 0 0 0 0 0 0 0 0 0 0 0 0 0 0 0 0 0 0 0 0 1 1 1 1 1 0 0 0 0 0 0 0 0 0 0
0 0 0 0 0 0 0 0 0 0 0 0 0 0 0 0 0 0 0 0 0 0 0 0 0 0 0 0 0 1 1 1 1 1 1 1 0 0 0 0 0 0 0
0 0 0 0 0 0 0 0 0 0 0 0 0 0 0 0 0 0 0 0 0 0 0 0 0 0 0 0 0 0 0 1 1 1 1 1 0 0 0 0 0 0 0
0 0 0 0 0 0 0 0 0 0 0 0 1 0 0 0 0 0 0 0 0 0 0 0 0 0 0 0 0 0 0 0 0 0 0 1 0 0 0 0 0 0 0
0 0 0 0 0 0 0 0 0 0 0 0 1 1 0 0 0 0 0 0 0 0 0 0 0 0 0 0 0 0 0 0 0 0 0 0 0 0 0 0 0 0 0
0 0 0 0 0 0 0 0 0 0 0 0 0 0 0 0 0 0 0 0 0 1 1 0 0 0 0 0 0 0 0 0 0 0 0 0 0 0 1 0 0 0 0